Theta_e
294 289 288 287 291 292 292 292 293 292 290 289 288 287 287 287 288 289 290 290 290 290 288 290 290 290 291 292 293 292 291 291 292 292 292 292 293 293 293 293 293 292 292 293 293 294 295 297 297 300 302 302 302 303 304 304 303 303 303 302 301 302 302 301 300 300 298 296 294 294 293 291 291 291 291 291 292 292 292 293 293 293 292 292 292 292
296 289 288 292 294 294 293 293 292 292 291 291 290 287 287 286 287 290 292 292 291 291 285 287 288 289 290 292 292 290 290 291 292 292 292 292 293 293 293 292 292 292 292 292 292 293 296 297 297 300 302 301 301 301 302 302 302 302 302 302 301 302 302 301 301 299 298 297 295 293 291 291 291 290 290 289 290 291 292 291 291 291 291 291 290 290
289 289 292 295 294 292 293 291 291 291 290 289 289 288 286 287 287 290 290 290 291 290 288 288 287 290 291 292 292 290 292 293 294 294 294 294 293 293 293 292 292 291 292 292 292 293 296 297 297 300 302 301 300 300 300 299 299 298 299 299 298 298 298 298 299 297 295 294 293 292 291 290 288 289 289 289 290 290 289 289 290 290 289 289 289 289
287 288 294 295 293 293 292 290 290 290 290 288 287 286 286 286 288 286 286 288 291 290 286 286 287 289 291 291 292 293 293 292 292 294 294 294 294 293 293 293 292 292 291 291 292 293 295 296 297 299 300 300 299 298 298 298 297 297 296 297 297 297 297 296 295 295 293 292 292 291 290 290 289 288 288 288 288 287 287 287 287 287 287 287 287 287
291 292 295 294 294 293 292 291 289 288 287 286 289 287 287 288 287 289 287 289 288 289 290 288 288 290 290 292 293 294 291 291 292 291 292 292 293 293 292 292 293 292 292 292 291 292 293 295 297 299 299 299 298 297 296 296 297 296 296 296 296 295 295 295 294 292 291 290 289 289 289 289 288 288 287 286 285 286 286 286 285 286 286 286 286 286
291 293 293 293 292 292 292 290 290 290 287 287 287 290 290 289 289 287 288 289 283 284 285 289 282 281 284 288 291 292 289 290 290 291 292 292 291 292 292 292 292 292 293 293 292 292 293 296 298 298 298 298 298 297 297 296 296 296 295 295 295 294 294 293 292 291 291 290 288 287 286 285 285 284 284 284 283 284 284 284 284 285 285 285 285 285
291 293 294 292 292 290 290 290 289 292 289 285 287 290 291 289 288 288 288 288 281 281 287 288 285 282 282 287 289 289 287 291 289 289 292 291 291 291 292 292 292 292 292 292 292 292 292 295 297 297 297 298 297 297 297 295 295 295 295 295 295 294 293 293 292 292 291 289 289 288 287 286 285 283 283 283 284 284 284 284 284 284 284 284 285 284
291 292 293 291 290 289 288 287 290 292 290 285 286 288 289 288 288 288 287 288 283 282 286 286 282 282 285 289 292 290 289 290 291 291 291 290 290 290 291 292 292 292 292 292 292 292 293 295 296 296 297 297 296 297 296 295 294 294 294 294 294 294 293 293 292 291 290 289 288 286 285 285 284 284 283 283 283 284 284 284 283 283 283 284 284 284
292 289 290 290 289 288 289 291 290 293 289 286 289 289 288 289 288 287 287 284 284 284 282 285 286 284 283 284 287 290 289 291 292 294 294 290 289 290 290 291 292 292 292 292 292 291 292 293 296 297 297 296 296 296 296 294 293 294 294 293 293 292 292 291 290 289 287 287 286 286 285 284 284 284 284 284 285 284 284 283 283 283 283 283 283 283
293 292 293 294 292 290 289 289 290 293 289 290 289 289 288 287 285 283 281 286 282 280 281 283 285 282 285 285 287 287 288 290 293 295 294 290 290 290 290 290 291 291 291 292 293 292 291 292 294 296 297 295 295 296 296 293 293 294 294 293 292 290 290 290 289 288 286 286 286 285 284 284 283 284 283 283 283 282 283 282 282 282 282 282 282 282
293 294 293 293 290 291 288 288 287 291 291 291 289 290 287 284 282 280 280 280 281 278 283 285 286 286 282 285 288 288 288 291 294 292 286 288 289 289 289 290 291 290 290 291 291 290 291 291 292 293 295 293 293 293 293 292 292 292 292 292 290 289 288 288 287 286 286 285 285 285 284 284 283 283 283 282 282 282 282 281 281 281 281 281 281 282
290 291 292 291 292 289 290 290 288 289 290 292 285 283 284 284 280 277 276 278 277 279 282 286 286 287 282 281 283 290 288 287 290 291 289 287 289 290 289 289 290 290 290 290 290 289 289 289 290 291 292 292 292 292 292 291 291 291 291 289 288 287 287 286 286 286 285 285 284 284 284 284 283 283 283 282 281 282 281 281 281 281 281 281 281 281
287 288 288 292 292 293 288 289 289 287 290 288 287 288 283 276 274 275 273 275 276 280 281 283 284 282 285 290 287 288 290 292 289 291 291 289 289 290 289 289 290 290 289 290 289 289 288 289 289 290 291 291 291 291 291 290 290 289 289 288 287 286 286 286 286 285 284 284 284 284 284 284 284 283 283 282 282 282 282 281 281 281 280 280 280 280
285 283 288 290 292 292 293 290 284 285 288 287 288 284 281 275 274 269 268 269 273 277 280 282 283 283 282 287 292 295 297 291 288 288 289 290 290 290 290 289 289 289 289 289 289 288 288 289 289 290 290 291 291 291 290 289 289 289 288 287 287 286 285 285 285 285 284 284 284 284 284 284 283 282 282 282 282 282 282 282 281 281 280 280 280 280
279 281 287 290 288 291 294 294 293 289 288 290 288 290 286 281 272 270 273 276 277 276 277 279 280 277 280 286 287 289 287 284 285 286 287 288 288 289 289 289 288 288 288 289 288 288 288 288 289 289 290 291 291 290 290 289 289 288 287 286 286 285 285 285 285 285 284 284 284 283 283 283 283 283 283 282 283 282 282 281 281 280 280 280 280 280
285 285 284 294 290 293 293 292 290 288 287 285 284 286 283 284 282 283 275 273 272 273 273 276 280 281 285 286 286 285 285 286 284 286 287 286 286 287 287 288 288 288 288 288 288 287 287 288 288 289 289 290 290 290 290 289 288 287 286 286 286 286 285 285 285 284 284 284 284 283 283 283 283 283 283 283 283 281 282 281 281 280 280 280 280 280
282 282 286 291 290 293 293 291 292 292 286 285 287 285 287 286 287 283 275 277 275 273 280 276 281 282 284 290 291 290 286 286 285 286 286 285 285 286 287 288 288 288 288 288 287 287 287 286 287 289 289 289 290 290 290 289 287 287 286 286 286 285 285 285 285 284 284 284 284 283 283 283 283 283 282 282 281 281 281 281 281 280 280 280 280 280
285 283 286 287 288 289 286 289 288 288 289 286 283 286 287 287 286 283 278 273 270 274 277 278 281 282 280 284 284 286 285 287 285 284 284 284 284 286 287 287 288 288 288 288 288 287 287 287 287 288 289 289 290 290 289 289 287 287 287 286 286 285 285 285 284 284 284 284 284 283 283 283 283 283 282 282 281 281 281 280 280 280 280 279 280 280
291 285 285 284 286 288 289 292 290 289 289 288 285 288 290 281 280 281 277 277 273 275 276 277 279 282 285 286 283 286 286 289 288 285 283 284 284 286 286 286 287 287 287 287 287 286 286 286 287 287 288 289 290 289 289 288 287 287 287 286 286 286 285 285 285 285 284 284 284 284 283 283 282 282 282 281 281 281 280 280 280 280 279 279 279 279
290 286 283 285 286 287 288 288 285 285 289 288 289 288 285 283 278 279 283 275 277 273 270 279 276 283 285 286 287 290 289 290 289 284 285 286 286 286 286 287 287 287 287 287 287 287 287 287 287 287 287 288 289 288 288 288 287 286 286 286 285 285 284 284 284 284 284 284 284 283 283 282 282 282 281 281 281 280 280 280 279 279 279 279 279 278
288 288 281 285 283 287 285 285 285 288 286 284 286 284 286 282 285 282 282 281 280 272 272 275 279 281 284 289 290 293 292 291 290 289 288 288 287 287 287 287 287 288 287 287 287 287 287 286 286 286 287 288 288 288 287 287 287 286 285 285 285 284 284 284 284 284 284 283 283 282 282 281 281 281 280 280 280 280 279 279 279 279 279 278 278 278
287 286 284 282 283 283 284 286 290 290 292 290 289 287 289 284 282 280 280 282 277 278 276 270 280 286 284 286 292 292 293 292 290 290 291 289 288 287 288 288 288 288 288 288 287 287 287 286 286 286 286 286 287 286 286 286 286 285 285 285 285 284 284 284 283 283 283 283 283 282 281 281 281 280 280 279 279 279 279 279 278 278 278 278 278 278
293 285 284 280 282 286 286 287 287 288 288 287 288 285 290 289 287 282 280 276 279 283 278 277 272 285 286 286 284 286 286 287 288 288 290 289 288 288 288 288 288 289 288 288 287 287 287 286 286 286 286 286 286 286 285 285 286 285 285 284 284 284 284 284 283 283 283 282 282 281 281 281 280 280 279 279 279 278 278 278 278 278 278 278 278 279
295 290 288 286 284 282 285 286 287 286 288 287 287 283 287 288 289 288 284 282 284 279 280 276 277 283 286 282 281 282 283 283 285 287 290 288 288 288 288 288 288 288 287 287 287 286 286 286 285 285 285 285 286 285 285 285 285 285 284 284 283 283 283 282 282 282 282 281 281 281 280 280 280 279 279 278 278 278 278 278 278 278 279 279 279 278
290 287 289 286 282 281 281 285 286 288 289 285 287 289 288 289 288 283 282 280 280 282 283 282 280 285 285 281 283 283 282 286 287 287 288 288 287 288 288 288 288 288 287 286 286 286 285 284 284 285 285 285 285 285 285 285 284 284 284 283 283 283 282 282 281 281 281 281 280 280 280 279 279 279 278 278 278 278 278 278 278 278 278 278 278 278
292 289 289 284 282 279 279 277 280 283 286 286 282 285 288 289 287 285 285 282 282 284 285 284 285 287 284 283 286 283 283 285 285 285 285 288 288 288 288 288 287 287 287 286 286 284 284 285 284 284 285 285 285 285 285 284 284 284 284 283 283 282 282 282 281 281 281 280 280 279 279 279 278 278 278 278 278 279 279 278 278 277 277 278 278 277
288 289 291 290 287 285 287 284 287 289 284 284 285 287 287 289 290 290 289 285 284 283 285 288 288 289 288 287 285 286 282 285 287 285 287 287 286 287 288 288 288 288 287 286 286 285 284 284 284 284 285 285 285 285 285 284 284 284 283 283 282 282 282 281 281 281 280 280 280 279 279 278 278 278 278 278 278 278 278 277 278 277 277 277 277 277
286 288 290 291 290 291 290 283 287 290 287 288 287 286 288 288 289 288 286 285 287 284 283 289 288 288 290 289 288 287 287 285 286 286 287 288 288 288 288 287 289 286 286 286 285 284 284 284 284 284 284 284 285 285 284 284 284 284 283 282 282 282 282 282 281 280 280 280 280 279 279 279 279 279 279 278 277 278 278 278 278 278 277 277 276 276
287 288 290 288 289 292 289 287 288 288 288 288 288 288 286 288 288 286 287 290 288 287 285 288 289 289 291 292 292 291 291 290 290 289 289 288 288 286 286 286 286 286 286 285 285 285 284 284 284 284 284 284 284 284 284 283 283 283 282 282 282 282 282 281 281 280 280 280 280 279 279 279 279 279 279 278 277 277 278 278 278 277 277 277 276 276
289 288 288 289 289 290 289 286 286 287 287 287 287 288 289 289 288 289 289 290 289 289 291 291 289 289 293 291 291 292 291 291 289 287 286 287 287 287 287 287 287 287 286 286 286 285 285 285 284 284 284 283 283 284 283 283 283 283 282 282 281 281 281 281 280 280 279 279 280 279 279 279 279 279 279 278 277 277 277 277 277 277 276 276 276 275
292 287 290 287 287 288 288 287 287 287 287 287 288 288 288 289 289 289 290 290 290 290 291 290 290 290 291 289 291 290 286 286 285 286 288 288 287 286 286 286 287 288 287 287 288 287 286 284 284 284 283 283 283 283 284 284 283 283 282 282 281 281 281 281 280 280 279 279 279 279 279 278 278 278 278 278 278 278 277 277 277 276 276 276 275 275
290 286 286 287 285 286 288 287 287 287 286 286 287 287 287 287 285 288 287 290 288 288 289 289 288 289 289 294 289 287 287 288 288 288 287 287 287 286 286 286 287 288 288 288 288 287 286 285 285 284 284 283 283 283 284 283 283 283 283 282 282 281 281 280 280 280 279 279 279 279 279 278 278 278 278 277 277 277 277 277 276 276 276 275 274 274
288 286 285 285 283 285 287 287 287 286 286 283 285 288 289 288 290 290 291 291 291 292 288 286 288 294 292 288 291 289 288 288 288 287 287 287 287 287 287 288 289 288 289 289 288 288 287 286 286 285 285 285 284 283 284 284 283 283 283 282 282 281 280 280 280 280 279 279 279 278 278 278 278 278 277 277 277 277 276 276 276 275 275 274 274 274
288 288 286 287 282 285 283 285 285 283 277 281 289 293 292 289 289 287 288 289 291 292 291 294 293 291 288 288 290 290 287 288 290 290 291 291 289 288 289 289 289 289 289 288 288 288 288 287 287 286 286 286 285 285 284 284 284 284 284 283 282 281 281 280 280 280 279 279 278 278 278 278 278 277 277 277 277 276 276 275 275 275 275 274 274 274
287 288 287 287 283 282 283 285 281 277 280 288 285 286 292 294 293 290 291 292 292 292 292 291 291 289 289 290 291 291 291 289 288 288 288 290 291 290 289 289 289 289 289 289 288 288 288 288 287 286 285 285 285 284 284 284 285 284 283 283 282 282 281 281 281 280 280 279 278 278 278 278 277 277 277 277 276 276 275 275 275 275 274 274 274 273
287 287 287 284 285 282 281 283 275 278 286 287 285 285 283 288 291 290 288 290 291 291 292 291 292 292 288 289 288 288 289 288 286 286 287 288 290 291 290 290 290 289 289 289 289 289 288 287 287 286 286 286 285 284 284 284 284 283 283 283 282 282 281 281 280 280 280 279 278 278 278 278 277 277 277 276 276 275 275 275 275 274 274 273 274 273
291 288 287 284 287 280 281 281 282 286 286 288 282 282 286 286 285 287 284 288 291 292 292 291 292 292 288 287 286 285 286 288 288 288 286 288 290 290 291 291 291 290 290 290 289 289 289 288 288 287 285 284 284 284 284 284 284 284 283 282 282 282 281 280 280 280 280 280 279 278 277 277 277 276 276 276 275 275 275 274 273 273 273 272 273 273
292 288 288 285 283 286 282 279 280 280 278 285 285 283 289 288 291 291 289 287 286 290 292 292 291 290 288 286 284 284 285 288 287 288 291 289 290 290 289 289 289 290 290 289 288 287 287 287 286 285 285 284 283 284 284 283 283 283 282 282 282 281 281 280 280 281 280 279 278 277 277 277 277 277 276 275 274 274 274 274 273 273 272 273 273 273
287 288 288 287 285 284 282 280 280 278 282 286 283 285 286 283 288 287 284 284 285 285 289 290 290 289 289 286 284 285 288 288 288 289 291 291 288 288 290 289 288 288 288 288 287 287 286 286 286 285 284 284 283 283 283 283 283 282 282 282 281 281 281 281 281 281 280 279 278 278 278 277 277 277 276 275 274 274 274 273 273 273 272 272 273 273
285 286 286 284 284 284 283 281 279 283 283 282 281 281 281 284 289 288 276 278 283 284 286 288 289 287 287 287 287 289 290 288 289 287 289 289 287 287 289 287 285 285 285 285 285 286 285 284 284 283 284 283 283 283 282 282 282 282 281 281 281 280 281 282 282 282 281 280 279 278 278 277 277 276 276 275 274 273 273 273 271 271 271 271 271 270
283 284 285 282 284 284 284 282 283 283 286 284 283 281 282 285 289 282 278 281 282 281 282 286 287 288 288 286 287 289 288 288 287 287 284 285 285 283 283 283 284 285 285 285 284 285 284 284 285 284 284 284 283 282 282 282 282 281 281 281 280 281 282 283 282 282 281 280 279 278 277 276 276 276 276 275 274 274 272 272 272 271 270 269 268 267
282 283 283 285 283 283 284 282 282 285 286 285 279 283 284 287 279 280 285 281 281 280 282 286 287 285 285 286 285 286 287 279 279 280 282 284 284 282 282 282 282 281 282 283 284 284 284 284 283 283 282 281 282 281 281 282 282 281 280 280 280 281 283 281 281 281 279 279 278 277 277 276 276 276 275 274 273 272 272 270 270 270 269 268 266 267
283 282 279 281 284 283 283 282 280 277 287 285 284 283 284 283 282 285 282 281 281 283 284 284 287 287 287 286 285 281 277 278 279 280 279 280 280 281 281 282 283 283 282 282 282 282 284 283 282 282 280 279 280 281 281 282 281 280 280 279 281 281 279 279 279 279 279 278 277 277 276 275 275 275 274 273 273 272 272 269 268 267 267 266 265 265
288 282 281 283 287 280 281 278 280 286 285 286 288 285 285 285 285 285 286 284 282 282 283 284 283 286 285 286 284 278 278 278 277 277 278 278 278 279 279 280 281 282 282 281 281 281 281 282 280 279 276 277 278 280 281 281 280 279 279 280 281 278 277 277 277 277 277 277 277 276 275 274 274 274 274 273 272 272 271 268 268 266 266 266 266 265
288 285 284 282 288 285 283 285 286 284 284 284 283 283 288 287 285 286 287 287 285 283 282 284 284 282 284 284 283 280 278 279 279 279 280 279 278 279 279 280 281 281 281 281 280 278 279 281 279 278 275 274 275 277 280 281 281 278 279 280 278 278 277 276 275 276 276 276 276 275 275 274 274 273 273 272 272 271 270 268 266 266 264 265 265 265
280 282 282 284 283 284 284 283 282 281 283 283 282 282 284 281 283 283 286 285 285 283 283 283 282 282 282 281 282 279 280 278 278 278 277 278 278 278 278 278 278 278 278 278 277 277 275 276 277 278 277 274 273 275 277 279 280 279 280 277 278 276 276 274 274 275 275 275 274 274 273 273 272 271 271 271 271 272 271 270 267 268 266 265 266 266
281 281 281 282 284 285 282 282 282 284 284 284 283 282 281 281 282 282 284 286 283 281 281 279 282 283 283 282 283 281 279 278 279 278 277 278 278 278 279 279 278 278 278 278 278 277 276 276 277 277 277 278 274 274 275 276 278 281 276 276 276 274 274 274 274 274 273 273 273 271 271 272 272 270 269 269 269 269 269 269 268 268 266 265 266 266
281 283 282 281 284 285 282 282 281 279 280 283 282 283 284 282 281 281 281 282 282 280 280 279 280 281 281 281 280 280 278 278 278 278 278 278 279 278 278 278 278 277 277 277 277 276 275 278 279 278 277 279 277 275 274 275 277 276 271 270 273 271 272 273 273 274 273 272 271 271 270 271 269 269 269 268 268 269 268 268 268 268 268 267 267 267
283 287 280 284 281 280 281 280 279 282 283 284 282 281 282 282 281 280 279 279 281 281 279 279 279 280 282 282 279 279 278 278 279 279 279 278 278 278 278 278 278 278 277 276 275 275 278 277 277 277 277 278 276 275 274 274 273 271 270 270 269 271 273 273 271 271 268 269 269 270 269 270 269 269 269 268 267 269 270 269 268 269 269 270 269 269
284 282 282 283 279 278 280 281 281 282 281 285 284 283 282 282 280 280 278 279 280 280 279 280 278 278 278 279 279 280 280 279 278 278 278 279 279 279 278 277 277 276 275 274 276 275 274 273 275 275 276 274 272 272 273 272 271 269 269 266 266 269 273 272 270 268 269 268 269 269 267 267 268 268 268 268 267 267 267 268 272 271 269 269 271 273
283 283 283 281 282 281 285 283 285 284 285 287 286 285 283 281 280 280 280 280 279 278 279 279 278 277 277 277 277 280 280 279 278 278 277 277 278 279 279 277 276 276 276 274 274 272 274 273 271 270 270 273 269 270 271 272 270 268 266 268 267 268 269 269 270 269 269 268 269 269 269 268 268 267 267 267 266 266 266 265 267 274 275 274 272 273
Wind_Speed
2 3 5 7 10 11 7 9 10 7 6 2 2 2 4 4 6 4 3 4 4 1 7 9 10 9 10 10 10 7 5 7 8 9 9 8 9 10 10 9 8 8 7 5 5 5 4 4 3 3 4 4 3 4 6 7 7 7 8 9 9 7 7 7 8 7 7 9 9 7 8 10 7 8 7 7 6 7 6 7 8 8 8 8 8 7
3 4 8 11 12 10 10 8 5 1 1 3 2 2 6 3 7 5 2 1 0 5 4 5 7 11 13 11 10 2 6 13 14 13 12 11 12 11 11 9 9 7 3 5 4 4 4 4 3 3 4 5 8 4 5 7 7 7 6 8 9 7 7 5 6 7 6 4 5 10 7 8 7 7 7 6 4 7 7 7 8 8 7 8 7 7
3 9 11 15 3 2 1 4 5 7 5 3 4 4 3 7 4 8 5 2 1 2 9 6 7 11 10 10 7 6 11 10 13 15 17 16 13 11 11 10 9 7 8 5 5 4 5 5 4 4 5 3 3 6 5 5 7 7 6 5 5 6 6 6 6 6 7 7 7 7 8 8 9 6 5 7 7 7 8 7 7 7 7 7 8 7
3 6 17 8 5 4 2 3 4 1 1 4 3 2 8 3 1 6 3 1 1 3 2 0 5 9 7 7 11 11 11 7 6 11 13 11 14 15 16 16 15 12 11 11 9 8 7 6 5 5 5 5 4 5 4 5 7 6 5 5 6 7 6 7 6 8 8 10 11 10 9 8 7 9 7 8 7 7 9 9 7 7 6 7 8 7
12 4 3 6 8 9 7 4 4 5 7 4 6 6 4 5 6 8 5 2 2 3 0 5 8 11 7 13 11 8 3 5 6 5 9 10 8 7 4 5 10 16 14 11 9 8 8 8 7 7 7 5 5 5 4 5 6 5 6 6 6 7 7 7 9 10 11 12 12 10 10 9 11 8 7 9 8 6 6 7 8 7 5 7 8 7
10 6 3 8 6 6 5 4 7 7 7 4 6 10 9 6 7 4 2 2 5 5 2 0 5 6 5 8 12 7 0 4 4 7 12 12 8 9 12 13 8 7 9 14 14 12 10 9 8 7 8 7 5 6 4 4 6 7 6 7 7 7 8 9 10 12 10 12 14 11 11 9 8 8 6 8 10 7 7 7 4 6 6 6 7 7
7 3 4 7 6 6 6 7 5 9 8 3 7 10 9 7 6 3 1 2 3 5 3 1 5 11 1 5 6 7 3 10 4 7 14 8 9 9 11 11 12 12 9 5 6 8 10 9 9 9 9 8 7 6 6 5 7 6 6 7 9 9 8 8 10 8 8 9 9 10 10 10 11 11 4 4 4 8 6 6 7 6 6 6 8 7
3 7 7 2 5 7 5 6 6 11 6 5 2 5 6 5 5 6 4 6 6 1 4 1 3 4 16 8 8 7 5 7 10 12 12 8 7 9 9 11 12 12 12 12 11 11 10 10 11 12 10 8 8 8 7 6 6 8 8 8 8 8 8 8 8 7 4 8 8 8 8 8 9 11 10 7 6 5 6 8 7 6 6 7 6 8
7 6 7 7 6 5 9 7 4 9 7 4 0 6 5 6 4 2 3 3 1 2 8 1 0 3 9 4 2 3 6 9 15 17 14 10 9 9 9 10 11 12 12 13 13 13 12 12 11 10 10 8 8 8 8 7 6 7 7 7 7 7 6 6 5 5 4 3 8 11 11 9 6 11 9 6 6 7 6 10 6 8 6 7 7 7
1 7 11 13 10 10 5 1 7 11 6 1 6 8 7 7 6 4 3 2 2 1 8 7 5 5 19 4 3 1 3 10 13 16 9 8 12 12 10 8 9 8 8 9 11 12 10 8 8 8 8 7 6 7 6 5 5 7 7 7 8 6 5 6 7 6 5 6 8 11 11 15 10 9 8 7 8 7 6 9 7 6 7 6 7 6
1 3 3 3 7 4 5 2 3 6 3 6 4 7 6 9 4 3 6 2 2 6 8 9 10 7 12 2 9 9 9 10 10 7 3 1 6 7 7 10 11 11 10 9 8 8 8 6 7 7 10 7 6 6 7 7 6 6 8 7 8 6 6 6 8 8 8 6 5 11 12 16 14 11 12 10 8 7 7 9 7 7 6 5 6 6
1 2 1 1 4 4 4 4 4 1 3 7 2 4 5 2 6 4 4 4 1 10 3 12 12 11 12 4 5 6 3 3 6 7 6 5 10 11 9 9 10 11 10 10 9 9 9 7 6 6 8 7 8 8 8 7 6 6 8 7 8 6 6 7 7 8 7 7 5 8 12 13 13 13 11 13 12 10 10 9 9 6 7 6 6 6
4 4 2 3 4 9 3 6 3 4 1 5 6 7 6 3 4 2 3 2 7 10 1 1 4 2 19 9 3 7 8 9 6 6 6 7 9 10 9 10 10 8 8 10 10 10 10 11 11 10 9 8 9 9 9 8 7 7 7 8 10 8 7 8 9 9 7 7 7 8 10 10 10 9 10 11 11 9 10 9 9 8 8 7 7 6
7 1 2 2 2 5 9 10 3 1 4 6 8 7 7 1 1 3 4 2 6 6 3 1 1 9 2 7 11 17 18 5 4 5 5 6 9 12 13 10 9 9 10 10 11 11 11 11 10 10 11 10 9 10 10 9 9 8 8 8 10 10 8 7 8 9 8 7 8 7 9 9 9 9 9 8 10 9 8 8 9 9 9 8 8 7
4 5 8 8 6 4 9 12 15 8 11 11 3 12 10 9 6 4 6 6 7 4 3 3 4 8 4 6 1 7 6 4 4 5 6 5 5 5 6 7 8 9 9 10 11 12 12 12 12 11 10 10 10 11 11 9 9 8 8 8 9 9 8 8 9 8 9 8 7 6 7 7 6 8 8 7 7 8 9 7 8 7 6 8 6 7
12 8 6 11 0 8 12 2 6 6 2 2 2 6 5 9 7 8 4 3 1 1 3 2 7 5 7 2 3 3 4 5 3 2 0 2 3 8 9 12 13 11 11 10 11 11 11 11 11 10 10 10 10 12 10 11 9 8 8 8 9 11 10 9 9 9 10 8 7 6 7 7 7 6 6 6 5 5 6 7 8 8 7 7 7 6
2 6 1 1 5 8 8 5 3 5 8 5 6 8 8 1 5 2 2 1 1 2 12 4 9 7 8 11 11 12 3 5 2 1 0 2 4 6 10 11 11 12 12 12 12 12 11 9 10 11 11 10 10 10 11 11 9 10 9 9 9 9 9 10 9 10 9 9 8 7 7 8 7 8 9 9 8 7 6 6 7 8 7 7 6 7
9 5 1 4 4 1 1 1 3 5 4 8 4 8 2 2 3 3 5 2 1 4 7 5 9 7 1 12 2 1 2 10 5 5 3 2 4 9 10 10 12 14 14 12 10 10 11 12 12 10 9 9 10 11 11 10 8 8 9 10 11 10 12 10 10 10 10 11 10 9 8 7 8 8 8 8 9 8 8 7 7 7 8 7 7 7
3 5 1 2 1 3 2 3 3 3 3 6 7 4 8 4 2 2 3 5 1 6 7 5 4 12 11 11 3 2 7 12 12 6 4 7 8 11 8 8 7 6 7 10 11 11 11 12 12 11 10 9 9 10 10 9 8 8 7 8 11 12 11 11 9 9 8 9 8 8 9 9 8 7 8 7 8 8 9 9 8 8 7 7 6 7
1 7 2 2 2 1 1 4 9 3 1 2 3 3 1 3 1 5 8 3 5 4 1 10 7 17 5 8 9 10 12 13 9 6 12 14 14 11 9 9 11 12 12 11 11 11 11 11 11 12 12 11 11 10 9 10 8 10 9 9 8 8 8 8 10 10 11 9 9 9 8 7 7 8 9 9 10 9 9 9 9 8 8 8 6 7
3 1 5 0 3 2 3 4 9 13 11 1 2 4 1 1 2 3 0 5 5 4 6 7 12 6 5 7 12 13 12 13 11 14 14 13 12 11 10 12 12 12 11 11 11 11 11 11 10 9 8 8 8 7 8 9 11 10 8 9 10 12 11 11 11 10 10 9 9 11 10 10 9 9 8 8 8 9 8 8 7 7 7 6 6 6
2 2 7 2 1 6 6 4 7 9 10 12 15 14 15 10 5 4 9 1 2 3 6 1 14 13 4 2 8 8 8 7 9 12 14 9 9 12 11 11 12 12 11 11 10 10 10 9 9 8 7 7 9 9 10 9 9 10 10 10 10 10 11 12 11 10 10 8 9 10 10 9 8 9 8 9 8 9 9 8 8 7 7 7 6 6
7 3 4 5 7 9 6 1 1 3 2 1 3 3 7 8 6 6 10 4 1 6 3 3 1 18 3 2 2 4 3 5 4 5 10 5 10 11 11 10 9 10 10 11 10 10 10 10 10 10 11 12 12 11 11 10 11 11 10 9 9 11 11 10 10 7 8 9 10 10 9 9 9 9 9 10 8 9 9 8 8 7 9 8 7 5
5 2 2 2 1 3 3 2 2 1 2 2 1 1 6 14 13 9 4 6 8 2 3 1 6 7 3 1 2 3 4 5 6 6 11 5 5 8 10 11 11 10 8 7 7 7 8 8 8 9 11 12 12 12 13 11 10 10 10 10 10 11 11 9 8 9 8 8 8 8 9 9 9 10 9 10 8 9 8 8 8 7 8 7 7 7
5 4 7 3 2 0 2 2 2 2 1 3 5 9 6 1 4 2 3 1 1 9 9 8 17 10 1 2 1 3 4 5 6 5 5 7 5 7 9 8 8 9 8 9 10 11 10 10 12 13 12 12 11 11 12 12 12 12 12 11 12 10 9 9 8 9 9 8 9 8 9 9 9 10 10 9 8 10 9 9 8 7 8 7 7 7
6 6 9 9 12 12 9 10 10 8 11 4 0 3 6 13 9 5 8 4 10 5 14 10 18 4 1 2 2 2 3 5 4 4 4 5 8 10 9 9 9 10 12 12 11 11 15 15 12 11 13 12 13 13 13 13 13 12 12 12 10 11 10 10 9 10 10 10 11 9 9 9 8 9 9 9 10 11 10 9 8 8 6 7 8 7
5 5 11 14 14 15 14 1 2 9 5 8 9 12 12 10 12 11 7 6 15 3 11 19 18 13 12 1 3 4 1 5 8 5 6 6 5 6 7 10 12 13 13 15 16 13 10 11 16 15 14 13 12 13 13 13 13 13 12 12 10 10 11 11 11 11 12 11 12 11 11 10 10 10 9 9 9 8 8 8 8 9 9 8 8 8
1 3 13 16 17 18 11 4 5 16 14 14 12 12 12 13 14 14 13 17 6 2 17 13 4 14 21 5 8 5 5 6 8 6 7 8 9 11 10 8 8 8 8 8 9 13 17 16 13 14 14 13 13 12 11 10 11 12 13 14 12 11 11 10 12 12 12 13 12 13 13 13 12 11 11 9 8 8 9 9 9 9 8 7 8 8
6 9 8 6 14 17 3 4 8 6 7 8 13 13 13 15 14 17 21 15 9 13 21 5 14 17 21 11 10 10 9 10 13 13 7 3 1 3 5 8 11 12 10 12 14 13 12 14 16 15 14 14 13 13 13 11 10 9 8 9 11 11 13 12 12 13 13 13 14 14 13 12 11 10 10 10 10 10 9 9 9 8 8 8 7 6
3 5 1 3 13 11 7 5 5 8 4 1 8 13 15 18 21 22 20 19 16 17 19 16 12 17 17 6 7 10 11 9 3 1 2 5 8 8 8 10 11 11 13 14 13 14 13 13 11 13 13 12 14 14 13 12 12 12 12 11 11 11 10 11 13 13 13 13 13 11 10 11 10 11 10 11 11 11 10 10 9 9 9 9 8 7
4 4 4 2 2 10 9 4 4 5 4 9 10 13 18 18 17 18 18 18 16 18 25 17 17 26 7 6 9 4 2 4 3 4 8 7 6 8 9 9 10 10 9 8 9 10 9 9 10 10 12 13 14 15 15 14 12 11 11 11 11 11 10 10 11 12 12 13 11 10 10 10 11 10 12 11 10 9 10 10 8 8 7 7 7 8
3 3 2 2 4 11 7 7 6 6 4 8 15 19 19 10 8 11 15 16 13 22 21 14 18 23 3 11 2 2 4 7 10 10 7 6 6 6 9 8 7 7 8 9 8 7 8 11 12 14 15 16 15 14 13 12 12 12 14 13 12 11 10 10 10 11 11 10 9 10 11 11 11 11 11 10 10 9 8 8 8 8 8 7 8 8
5 5 4 5 6 11 4 9 11 5 3 7 21 29 14 13 18 18 17 17 20 19 14 17 20 21 8 4 9 9 7 8 6 6 7 5 6 8 9 9 9 9 10 10 10 11 12 13 15 16 16 13 12 13 14 12 11 14 13 13 11 9 10 11 11 10 9 9 10 10 10 10 11 11 9 9 8 8 8 8 8 8 9 10 8 6
7 9 6 5 6 5 2 5 5 5 7 16 6 5 17 20 24 21 20 21 20 16 17 18 19 7 4 8 9 9 8 8 11 13 11 12 11 10 10 9 10 10 8 7 9 11 13 11 11 12 13 13 13 12 10 11 14 11 8 9 9 12 11 12 11 11 11 10 10 10 10 10 9 9 9 8 8 8 9 9 11 9 7 7 7 8
10 9 8 5 4 4 4 7 5 11 16 5 2 5 9 22 20 22 24 20 19 18 18 18 16 11 8 10 11 10 12 8 4 5 6 7 10 12 13 11 10 9 10 10 9 9 11 13 11 8 9 11 11 10 10 10 9 7 8 9 11 10 11 11 11 11 11 11 10 9 8 10 9 9 9 9 9 9 9 10 8 9 8 8 9 10
9 11 4 3 4 3 2 8 6 10 3 4 4 1 1 2 8 10 16 19 17 17 20 22 23 17 7 7 5 5 7 4 4 1 5 4 7 10 10 10 10 9 9 10 12 13 12 12 14 14 14 8 9 10 11 11 9 10 10 9 11 11 12 12 12 12 11 12 11 11 11 10 10 10 9 9 9 10 10 10 11 11 9 7 7 5
14 7 8 6 6 7 5 9 13 7 12 12 3 3 8 8 7 12 11 17 17 19 18 19 21 15 7 5 5 4 4 5 5 1 2 8 9 7 10 10 10 11 11 10 10 11 11 10 9 8 6 8 10 11 12 10 11 11 10 11 11 11 11 11 12 13 13 12 11 11 11 11 10 10 10 10 10 11 11 11 10 8 7 8 8 8
9 13 8 10 7 10 8 6 1 4 12 18 4 3 8 5 9 12 10 14 4 13 16 17 18 12 11 5 4 5 3 4 4 4 5 7 7 6 2 2 3 5 8 8 6 6 7 6 5 6 9 9 10 11 9 11 12 11 11 11 10 10 10 11 14 13 11 10 10 10 10 11 11 12 12 11 13 13 11 8 6 8 8 10 11 10
3 2 7 14 6 7 9 9 9 11 13 3 3 7 6 3 6 5 3 14 3 9 10 14 16 13 14 10 6 4 6 8 9 6 8 8 5 4 7 6 7 9 8 9 9 8 7 7 8 8 7 9 10 10 10 11 11 11 11 10 10 10 11 13 13 11 11 11 10 11 12 11 12 12 11 12 12 10 10 11 11 8 7 7 6 7
6 6 5 9 9 10 11 9 10 5 9 3 5 2 4 5 9 8 1 10 3 8 7 11 13 11 8 11 11 8 10 13 9 5 4 6 9 7 8 9 5 4 3 3 3 4 6 8 8 7 9 11 10 8 10 10 11 11 10 9 8 10 13 15 13 11 10 10 10 10 10 9 11 11 11 12 10 9 10 6 5 7 8 7 7 6
5 3 8 14 13 12 13 8 4 6 5 3 4 3 5 6 7 8 16 7 1 1 3 6 9 11 12 11 8 9 5 2 3 2 3 5 6 3 4 3 3 4 6 6 6 7 8 7 9 10 10 7 8 9 9 10 10 10 9 9 9 13 15 12 8 8 9 8 8 8 9 8 10 12 11 10 11 10 7 7 7 6 7 8 6 6
4 4 2 7 10 12 12 11 11 6 5 6 0 10 7 9 7 14 4 1 6 3 1 7 8 5 7 9 5 4 4 1 3 3 4 4 5 4 4 5 6 6 5 4 5 7 7 6 5 5 5 5 9 9 9 10 10 9 8 8 11 15 10 5 7 7 6 8 8 9 9 10 9 9 10 8 7 8 8 6 6 7 7 6 6 7
12 8 7 10 6 2 2 10 3 8 6 11 10 3 4 6 5 4 3 1 1 5 6 2 7 7 7 6 3 4 4 2 3 3 3 4 6 6 6 6 7 8 8 6 5 4 8 7 6 6 6 5 7 8 8 10 9 7 7 9 15 8 5 6 6 7 7 8 8 9 10 9 10 10 8 9 9 10 9 7 8 7 7 7 7 8
7 7 4 8 8 8 9 9 9 6 4 11 18 13 8 5 1 7 9 5 0 4 6 7 2 6 5 8 8 4 4 6 3 3 4 3 4 4 3 4 4 5 4 3 4 5 5 7 6 6 4 4 5 6 7 10 9 8 8 14 6 4 5 6 6 6 7 8 9 8 8 9 9 9 8 9 9 9 9 8 8 7 8 8 8 8
11 11 4 9 8 10 7 6 0 2 3 3 2 1 7 5 5 5 8 8 7 4 3 4 6 5 7 7 7 8 5 3 5 6 7 7 6 6 7 6 6 7 6 6 6 4 5 8 8 6 5 4 5 5 7 7 10 8 11 8 5 6 7 7 7 8 8 8 8 9 8 7 8 9 8 8 9 10 9 8 8 8 6 7 8 8
4 1 0 4 2 1 1 3 1 1 2 1 1 1 1 3 2 1 8 6 1 4 6 7 6 6 5 5 9 1 4 6 6 5 2 5 5 4 3 4 4 4 4 5 4 4 4 5 5 7 6 3 3 5 5 6 8 11 10 4 7 6 7 7 8 7 9 7 7 8 7 8 7 7 7 8 8 10 10 11 10 10 9 8 9 9
2 1 1 3 1 6 7 3 3 2 1 2 1 2 1 2 3 1 4 5 4 5 4 1 6 8 8 8 8 9 6 6 7 4 4 5 6 6 6 6 5 5 7 6 6 6 6 6 6 6 6 7 5 5 5 6 7 8 5 7 6 7 7 8 8 8 6 8 7 5 7 8 8 7 6 7 7 7 7 8 8 9 9 10 10 10
3 4 2 1 5 8 1 1 1 3 1 1 1 3 3 1 2 1 2 1 3 3 2 3 5 5 5 5 5 8 7 6 8 7 6 6 7 7 6 6 7 5 2 3 5 5 5 6 8 7 7 8 7 6 6 6 8 5 4 5 6 6 7 7 8 8 8 7 6 7 7 8 9 9 7 8 8 9 8 8 9 10 12 13 14 13
3 6 5 4 4 1 2 2 1 3 2 2 3 4 2 2 3 1 1 2 5 7 5 3 1 5 7 6 6 8 8 7 8 9 8 6 5 5 7 7 7 7 6 6 5 6 9 8 7 8 9 8 5 5 6 6 3 1 3 3 4 7 8 8 6 5 5 5 6 7 6 7 7 8 8 8 8 9 10 12 12 12 12 10 8 10
5 7 2 5 4 3 7 8 6 6 4 7 8 5 4 3 3 4 3 4 5 7 5 5 3 2 2 5 8 9 10 9 5 6 8 8 8 7 6 6 6 6 5 3 5 5 4 5 6 7 8 4 4 5 5 5 3 1 2 3 3 5 7 6 6 5 6 6 7 6 7 7 7 7 7 8 9 8 8 7 9 9 9 9 8 14
7 6 7 6 8 9 7 8 10 1 2 8 10 6 5 5 6 7 6 6 4 4 6 9 6 2 2 2 3 7 8 9 8 5 5 5 7 8 9 9 8 6 7 6 6 5 6 5 4 4 4 5 4 5 6 5 5 4 4 5 5 5 4 5 6 5 5 6 7 8 8 7 7 7 7 7 7 7 8 7 7 13 17 13 9 11
Wind_Direction
119 125 171 195 215 211 202 193 199 201 166 115 108 127 212 213 279 283 262 254 195 101 230 225 230 238 252 246 251 212 205 231 238 233 222 211 205 204 204 198 187 181 185 180 173 172 170 162 177 170 135 128 120 125 129 126 129 134 137 134 126 134 132 129 127 122 123 122 112 86 93 99 93 89 88 84 81 76 69 73 75 74 76 76 78 80
73 166 235 222 216 197 202 200 212 122 170 188 208 194 269 184 253 244 245 357 283 171 288 248 243 250 249 255 254 210 175 223 219 225 228 220 211 208 199 192 186 177 125 141 148 169 157 156 173 163 141 149 135 137 142 140 139 141 141 138 139 143 140 125 123 128 118 101 108 121 114 111 100 100 95 91 54 78 78 73 76 80 80 82 79 79
177 199 227 228 189 144 158 174 188 195 222 225 203 245 269 261 248 284 263 279 280 149 256 267 261 255 253 254 259 204 207 223 214 211 216 212 209 205 198 188 169 166 175 170 171 171 167 161 182 167 150 153 141 141 148 136 127 131 138 135 136 129 126 121 114 113 110 103 99 103 112 110 103 70 87 91 88 86 82 68 66 71 74 80 77 74
251 277 244 229 133 152 226 165 158 184 236 215 253 218 234 230 142 290 291 351 256 174 254 312 293 277 275 259 250 237 215 234 226 221 230 218 210 201 196 186 179 176 168 178 175 176 173 168 178 166 156 157 145 134 140 143 133 129 133 133 126 116 112 115 111 108 99 99 98 89 100 95 92 117 104 88 76 74 75 64 58 52 63 71 81 76
207 216 257 154 168 172 204 198 147 169 234 235 203 212 229 220 232 195 252 306 315 318 30 298 295 281 238 262 265 249 235 246 256 227 236 236 222 202 172 177 183 176 172 168 171 178 173 172 180 170 162 158 157 153 155 151 146 138 138 128 120 119 119 116 122 120 121 114 101 102 93 97 98 79 89 89 66 61 74 79 57 53 54 70 78 77
263 257 81 126 170 179 182 210 207 171 229 256 223 196 209 210 222 264 350 20 10 329 336 119 323 275 264 243 249 260 328 236 242 219 234 221 204 175 185 188 177 184 179 170 174 176 174 171 169 168 165 169 166 156 156 155 138 139 136 131 125 121 127 133 134 137 139 134 130 132 126 123 112 107 99 106 119 104 89 89 85 61 54 71 77 75
218 187 146 158 163 179 187 202 225 167 212 201 266 193 207 193 194 189 201 75 290 255 299 14 207 283 282 247 225 245 225 246 269 230 240 216 204 194 194 181 180 176 174 175 163 163 169 178 170 170 173 173 167 158 150 146 141 140 140 141 139 138 135 138 141 145 140 129 129 133 132 133 130 121 69 80 85 110 100 93 85 80 62 59 79 71
142 197 201 130 133 165 186 217 237 176 175 236 246 163 178 175 191 223 190 186 233 246 298 45 113 268 292 253 208 199 211 250 263 254 243 226 205 203 196 183 181 178 174 169 172 175 178 175 175 173 173 173 168 156 153 149 145 148 150 148 143 140 142 146 145 142 141 134 128 115 108 114 122 121 130 129 114 96 107 96 87 82 68 59 62 77
155 186 188 196 190 176 201 205 177 159 155 219 217 135 152 178 189 126 156 188 206 22 287 268 21 306 247 280 332 185 235 265 258 256 248 208 207 206 197 189 185 179 176 169 170 178 179 178 177 170 172 172 157 159 157 158 152 144 146 145 138 138 137 134 132 128 112 127 132 126 122 107 105 117 120 122 110 108 110 97 85 82 76 69 60 63
307 175 197 182 172 213 213 214 161 160 199 253 127 88 81 77 68 100 91 106 316 59 252 188 179 215 278 203 148 352 197 242 246 248 261 190 200 198 194 186 177 174 174 180 176 174 174 174 170 169 160 156 161 153 144 138 139 142 142 145 140 133 134 138 127 120 124 137 138 127 130 125 128 123 119 121 120 116 115 101 97 91 87 83 77 67
254 284 177 127 201 198 127 64 162 196 175 130 80 71 28 41 33 25 65 80 24 262 239 182 198 161 280 294 176 143 207 209 235 271 324 248 198 200 194 178 176 177 175 174 169 167 166 168 163 165 166 158 139 137 140 141 145 148 144 147 143 139 138 142 136 136 140 137 146 133 138 135 138 138 135 131 124 124 117 112 108 103 100 89 87 84
351 355 142 260 105 101 106 81 19 83 129 131 96 121 61 341 18 32 337 40 169 266 197 187 184 186 219 290 269 237 286 250 210 240 252 212 203 197 187 185 182 176 173 165 159 162 158 153 163 164 163 159 149 143 147 148 144 149 142 144 137 139 148 144 138 132 135 130 133 136 138 137 143 145 146 141 140 142 131 129 124 121 108 95 91 88
271 210 257 330 210 134 121 90 3 30 56 84 95 85 131 248 36 297 24 278 204 238 292 300 166 344 238 241 283 270 273 266 226 220 227 216 211 197 188 184 178 171 164 165 165 161 166 167 168 172 169 164 159 158 157 158 155 151 148 154 146 151 155 150 145 141 137 134 140 144 138 137 141 143 141 139 136 144 138 139 135 133 122 126 109 107
266 283 328 258 346 240 144 162 169 80 214 123 143 151 133 170 221 269 263 256 304 297 273 125 105 248 332 287 223 249 251 247 263 233 240 218 205 193 187 174 168 172 172 171 168 169 171 169 172 173 171 170 165 163 164 164 161 159 158 161 153 155 155 151 144 141 135 139 142 144 142 140 143 143 143 144 141 148 141 143 139 139 140 135 131 129
228 309 239 142 234 178 185 194 183 164 162 199 125 154 184 153 153 220 198 210 221 225 297 273 124 234 125 241 250 247 287 297 263 256 249 243 213 181 161 152 154 166 179 172 173 174 174 174 171 173 174 173 170 167 167 169 168 161 162 162 156 148 154 150 148 143 141 142 142 141 139 138 139 143 141 141 143 143 139 137 130 128 130 126 132 128
212 232 264 199 274 162 187 211 107 88 80 232 164 62 94 211 149 228 194 171 242 318 327 198 208 193 192 238 261 242 291 282 326 342 79 122 120 139 151 169 177 177 176 177 175 176 179 174 170 170 175 177 176 172 170 171 167 165 165 162 161 157 157 155 152 151 147 145 142 141 141 141 136 132 129 126 127 126 130 137 134 132 130 128 128 129
45 265 282 34 41 175 186 133 179 146 197 208 108 196 212 97 142 237 27 46 113 45 252 138 272 278 303 273 239 245 212 270 328 299 137 178 159 163 177 180 180 179 178 181 181 178 176 171 177 178 178 178 176 175 175 172 171 168 162 162 160 160 154 156 158 151 150 147 146 150 145 143 142 145 148 146 141 134 128 127 129 130 132 129 134 138
160 238 297 108 207 307 91 122 106 29 140 97 180 229 109 109 109 145 228 333 66 217 273 146 237 277 82 282 12 35 261 255 254 239 229 202 188 187 193 187 184 186 187 181 177 177 175 176 178 181 180 177 179 175 171 171 169 167 166 166 160 162 161 161 155 156 155 155 152 151 149 147 149 148 142 140 140 139 133 129 125 127 134 149 152 141
141 284 271 338 84 318 350 108 26 358 38 149 193 198 134 239 240 291 91 255 221 252 281 267 229 257 199 243 81 205 226 246 236 221 210 215 208 207 194 194 190 179 171 179 182 177 180 182 182 180 179 177 177 174 169 163 161 163 171 174 166 166 167 161 158 156 154 155 153 154 153 151 147 145 139 137 136 140 139 141 144 146 144 142 148 141
122 193 295 328 121 309 29 131 197 195 358 52 84 112 79 99 163 139 199 179 116 258 37 276 90 262 146 217 176 226 215 232 230 193 223 215 205 195 191 186 186 186 188 185 184 184 184 184 181 178 176 177 176 172 167 163 164 171 172 170 170 158 152 155 156 160 159 159 152 149 143 146 147 146 146 147 147 148 147 149 148 148 152 155 144 140
207 145 253 226 306 110 186 186 194 167 179 120 117 197 168 41 243 116 339 154 175 190 198 280 294 254 220 192 181 208 213 225 204 211 221 217 204 195 191 186 189 190 187 187 185 184 183 181 176 176 174 171 166 165 162 168 174 173 169 173 171 163 162 165 164 162 163 154 155 150 153 152 150 149 144 145 149 144 147 149 151 155 151 136 141 143
170 158 196 136 250 223 250 241 209 195 196 185 175 191 180 144 142 178 251 59 147 149 238 158 263 270 253 154 216 197 221 226 220 213 225 213 192 191 193 194 189 187 188 184 185 179 177 176 171 167 165 164 166 170 171 173 171 175 177 177 170 167 170 167 168 167 160 159 154 157 152 152 151 147 149 149 151 149 153 154 155 154 145 141 145 147
167 152 103 191 213 201 218 227 235 209 108 171 176 234 184 184 158 169 220 233 16 239 131 205 331 275 169 193 251 258 272 264 256 229 247 211 195 194 194 190 191 190 183 181 179 176 175 175 173 172 173 175 177 175 172 175 179 178 177 174 177 173 177 171 164 158 157 157 158 158 154 150 153 152 154 154 156 157 158 155 154 157 146 148 152 152
87 129 210 266 45 321 315 319 48 61 111 298 309 145 149 204 197 203 193 183 192 167 170 266 253 262 340 72 279 261 272 263 275 223 233 213 195 193 187 183 183 178 176 170 165 166 169 169 163 166 177 178 181 179 178 177 176 176 179 179 175 180 171 164 160 157 155 155 157 155 153 158 154 156 160 160 163 162 162 159 157 154 146 149 150 152
141 243 179 201 312 343 349 339 315 355 85 203 203 207 209 183 191 174 96 95 273 213 165 168 243 251 256 339 291 4 351 328 289 274 222 211 194 190 192 190 181 171 163 170 170 168 166 167 176 183 181 182 182 181 179 177 181 179 181 180 180 176 170 159 156 155 157 157 156 160 162 161 161 163 165 164 165 167 164 164 155 149 150 150 157 159
169 159 158 198 216 228 223 201 199 190 200 199 39 119 182 197 180 150 231 174 232 219 159 214 248 227 265 314 351 338 4 316 300 289 276 226 186 186 188 183 183 176 178 173 170 168 181 184 177 179 184 184 186 183 181 183 181 181 181 184 178 170 167 165 159 161 158 161 159 165 168 165 166 170 169 170 173 172 170 163 155 151 152 161 161 158
171 184 182 198 209 226 237 138 176 120 76 192 214 182 205 200 203 204 220 208 220 130 190 226 235 273 275 313 320 295 315 263 285 290 236 226 221 208 189 183 184 186 180 179 180 181 169 176 188 188 185 186 184 186 186 184 182 181 180 179 178 174 169 168 165 164 164 166 168 168 172 171 175 172 174 179 177 170 167 164 158 157 163 168 166 162
92 187 216 209 214 227 224 145 184 164 180 205 196 209 198 194 196 197 209 228 116 157 252 237 177 251 259 217 230 247 269 262 252 249 250 231 206 197 196 186 181 181 185 180 179 178 186 188 182 185 187 184 188 187 187 187 186 184 181 180 175 173 172 171 169 169 171 170 175 178 178 179 175 174 176 175 174 174 172 166 163 163 161 161 170 168
148 209 226 192 239 241 202 136 155 176 182 189 202 202 199 205 195 203 222 224 157 215 240 231 185 232 252 229 229 209 209 219 225 227 227 259 222 162 159 182 192 194 186 184 189 189 185 185 190 186 184 188 181 186 186 182 183 180 181 180 178 176 181 173 170 174 176 179 182 186 180 174 174 173 173 173 173 174 173 171 167 162 163 170 171 170
103 229 164 164 236 249 234 136 159 158 185 165 215 212 206 203 206 206 218 217 209 233 245 246 230 243 246 225 204 222 219 220 231 94 131 177 198 192 184 194 197 194 192 193 192 191 193 194 186 187 185 185 188 186 184 184 184 183 181 183 182 182 179 170 180 177 181 185 189 183 176 175 172 175 174 176 178 177 174 171 168 166 169 175 171 168
141 246 110 112 275 251 239 140 164 173 160 224 229 225 221 213 210 208 217 226 222 240 243 244 261 262 247 143 222 216 91 98 114 191 202 207 182 188 197 202 200 198 200 202 196 195 195 193 192 185 188 191 190 191 189 190 184 178 181 182 181 182 180 178 180 184 183 189 186 178 174 175 179 175 181 183 177 177 174 170 167 169 172 171 168 169
145 229 44 105 212 263 232 173 213 191 198 234 254 240 225 201 217 221 221 221 200 225 235 243 251 254 152 198 136 106 161 172 203 210 204 211 198 178 194 201 195 194 190 194 196 191 194 197 193 193 195 195 194 191 188 185 183 180 190 183 179 178 169 179 185 186 189 190 181 180 181 182 176 179 183 179 184 178 171 163 165 171 173 170 170 174
165 126 155 153 214 240 268 156 211 190 215 283 249 244 209 199 215 221 226 220 214 216 223 226 236 247 233 165 176 211 195 210 216 202 205 183 175 185 191 191 191 193 195 191 190 195 199 201 201 200 200 196 192 192 195 184 178 192 188 180 178 157 171 182 186 188 189 188 186 187 185 181 180 181 180 184 178 170 165 168 171 176 176 181 177 166
157 169 201 161 198 246 126 151 109 152 213 231 265 120 174 201 208 217 223 220 222 207 224 224 238 247 152 195 196 205 204 213 206 216 193 174 171 188 200 193 193 194 192 188 195 199 204 204 208 206 201 197 195 193 181 183 192 192 176 168 160 172 177 180 187 187 190 188 191 187 185 183 181 184 183 177 173 171 175 176 186 183 178 170 170 182
174 188 202 149 178 211 144 111 161 211 226 239 342 274 191 199 204 211 229 225 224 222 236 249 252 247 209 195 204 200 206 221 230 185 178 183 175 178 184 190 190 190 193 193 197 203 204 205 202 195 190 196 188 178 173 190 189 163 164 169 173 179 179 186 185 189 191 192 188 181 183 185 185 186 182 179 177 178 184 186 182 179 182 180 184 187
180 183 151 181 149 56 139 183 213 221 251 299 301 299 345 95 207 206 242 241 228 220 218 232 238 236 212 218 231 208 175 178 80 92 158 169 186 181 174 186 196 186 191 195 200 206 199 197 197 194 198 173 162 177 183 185 168 166 177 171 177 181 185 184 189 194 192 195 188 185 186 185 186 186 183 180 181 185 190 190 188 186 181 179 188 192
178 171 164 214 167 200 194 199 232 348 317 275 225 205 162 175 162 179 219 246 218 219 215 226 236 231 217 222 211 176 149 107 92 59 257 194 198 204 181 189 182 190 197 204 196 205 199 196 194 187 149 158 173 172 183 172 169 173 169 176 186 181 184 186 196 199 198 196 188 188 186 185 183 186 186 186 186 193 195 191 189 188 176 183 191 190
188 184 187 203 204 193 199 220 288 250 247 256 205 219 195 189 176 182 189 265 191 207 213 214 227 215 202 179 168 185 111 122 217 235 240 233 215 187 170 151 168 190 199 191 185 175 168 166 146 147 161 166 175 180 171 169 171 172 176 183 180 179 187 193 205 203 196 193 189 187 182 185 187 190 192 189 195 197 198 193 192 191 181 189 191 196
306 278 181 199 195 173 209 218 212 223 242 234 227 195 169 132 136 109 95 256 237 191 205 198 215 201 188 159 186 170 145 201 227 195 227 212 207 179 182 200 185 188 181 175 169 167 161 159 157 154 153 162 177 180 167 166 166 170 182 182 180 182 190 203 208 197 194 195 187 187 189 191 193 194 192 195 200 195 193 194 196 189 182 199 194 202
194 183 157 213 209 198 204 218 228 215 249 248 219 220 188 147 126 103 166 260 253 213 205 187 197 178 162 169 160 169 172 214 211 227 231 166 163 174 184 179 156 121 118 122 121 141 139 133 124 144 164 180 183 158 159 157 166 177 180 181 173 186 203 209 205 196 194 194 190 190 192 192 193 195 192 198 196 193 201 188 172 180 185 195 193 188
180 225 209 206 210 217 219 238 266 281 269 212 196 175 144 161 127 151 221 230 230 146 188 153 172 169 161 170 178 179 234 185 188 192 93 113 94 78 47 70 106 131 143 145 135 128 135 149 157 168 176 171 151 153 157 157 165 179 181 172 179 204 212 206 188 189 194 187 184 188 192 192 193 195 199 196 195 191 187 182 186 175 180 190 185 178
218 191 249 215 220 215 215 226 233 259 236 168 342 150 170 114 197 217 229 203 141 179 197 160 155 157 152 159 180 194 184 144 55 88 118 121 131 111 110 110 104 77 56 85 126 133 131 132 127 121 115 135 148 153 155 159 168 178 166 175 202 215 208 176 184 181 177 182 187 189 190 192 197 198 197 188 172 177 190 188 175 182 182 174 179 191
178 173 192 203 211 282 182 229 198 239 246 130 121 73 273 184 242 165 138 56 147 155 135 164 160 176 157 175 180 128 115 91 94 113 117 128 130 143 143 145 138 140 137 128 110 115 129 128 132 138 136 136 144 148 156 155 165 165 172 187 218 207 159 175 166 171 178 184 189 191 193 193 191 191 185 185 185 183 191 178 178 180 171 175 185 195
173 169 190 221 180 200 193 211 212 223 116 173 150 181 187 196 193 149 129 134 257 163 167 132 182 174 178 156 155 151 145 128 88 101 99 99 105 105 107 103 100 105 104 77 110 133 122 113 116 112 112 129 138 149 153 159 159 168 175 214 199 132 155 155 167 165 177 189 196 191 194 193 193 193 189 185 180 184 183 182 183 177 184 183 185 193
201 200 168 193 179 191 208 210 174 285 174 181 58 348 161 171 158 171 132 144 157 218 185 126 156 165 182 152 151 149 147 197 166 173 155 168 153 158 156 166 157 154 146 137 132 128 121 137 136 123 115 122 141 151 158 162 160 167 197 213 140 174 162 167 159 172 185 193 194 194 196 188 191 192 190 183 176 182 188 184 173 186 192 178 195 199
352 172 343 105 250 40 355 189 317 336 155 198 1 307 130 114 115 148 136 123 209 146 170 156 170 161 160 159 124 199 170 170 153 175 126 140 151 148 121 114 107 101 105 102 110 115 112 106 119 132 138 139 156 158 167 173 161 172 211 159 170 169 165 156 165 179 195 192 193 196 179 185 196 193 191 184 189 194 191 184 185 193 187 188 202 202
263 158 88 152 190 148 234 157 170 201 131 154 12 359 358 93 178 194 125 134 138 150 173 189 155 165 164 164 168 164 168 165 159 155 151 149 160 167 163 161 159 158 153 158 160 132 116 131 136 153 158 172 196 180 183 180 194 194 153 161 164 158 158 163 172 184 183 193 191 181 177 188 193 191 190 192 195 199 193 189 189 193 191 196 200 206
266 176 78 202 189 188 270 165 198 333 274 179 163 183 191 98 51 41 36 38 117 128 118 139 118 118 139 159 167 146 155 163 154 168 169 178 173 169 167 166 164 160 171 134 142 136 130 155 163 172 176 191 192 189 190 197 206 187 153 153 153 152 152 166 178 183 193 190 182 183 186 195 190 183 193 197 191 195 201 203 192 195 203 198 201 202
172 135 191 181 150 15 344 315 320 41 21 271 259 246 251 146 124 86 48 119 142 121 98 88 66 167 170 162 141 138 142 186 181 170 167 170 165 168 177 174 177 172 156 148 162 165 174 175 177 181 182 200 184 184 195 212 206 152 166 157 153 154 161 177 183 182 181 178 172 195 192 195 189 195 195 199 204 216 204 196 197 208 223 225 207 208
122 184 184 115 110 192 190 194 157 132 226 231 235 219 213 176 139 140 122 130 125 128 139 125 59 67 127 152 157 154 164 177 187 164 165 172 181 179 167 165 156 154 167 166 163 178 182 185 180 178 196 194 166 179 204 217 205 169 181 146 173 167 171 170 166 179 192 186 192 195 186 197 201 197 198 197 205 212 239 251 228 223 217 225 203 218
167 184 147 167 181 210 206 178 183 111 170 196 191 200 171 156 151 159 175 171 176 156 153 135 122 99 140 190 191 163 163 168 176 163 155 174 193 184 174 156 153 158 170 160 152 184 199 194 172 190 207 205 173 184 199 208 206 194 195 172 172 175 164 150 171 195 203 188 209 200 196 195 199 202 200 204 201 206 217 237 248 236 234 232 217 222